Simultaneous Nadir Overpasses (SNOs) Predictions

Prediction of SNOs between AQUA and NPP Satellite Orbit:

Table of predicted SNOs for the next 14.0 days since TLE Epoch: 10/31/2020
Index Date (AQUA) Time (AQUA) Lat,Lon (AQUA) SZA (AQUA ) Date (NPP) Time (NPP) Lat,Lon (NPP) SZA (NPP ) Distance(km) Time Diff (sec)
1 10/31/2020 14:05:10 75.74,-153.09 110.62 10/31/2020 14:04:43 75.74,-153.09 110.64 0.22 27
2 10/31/2020 14:54:19 -76.63, 17.41 70.34 10/31/2020 14:55:09 -76.63, 17.36 70.37 1.19 50
3 11/03/2020 05:37:04 -59.73, 133.82 53.97 11/03/2020 05:35:51 -59.94, 132.56 53.47 74.37 73
4 11/03/2020 06:21:31 76.13, -36.00 111.02 11/03/2020 06:21:28 76.14, -35.97 111.01 1.06 3
5 11/03/2020 07:10:35 -77.25, 135.53 70.20 11/03/2020 07:11:49 -77.23, 135.57 70.26 1.92 74
6 11/05/2020 21:48:48 -75.42, -89.90 67.45 11/05/2020 21:47:52 -75.42, -89.85 67.41 1.51 56
7 11/05/2020 22:37:50 76.57, 81.30 111.35 11/05/2020 22:38:11 76.58, 81.38 111.31 2.45 21
8 11/08/2020 14:05:15 -75.51, 26.24 66.77 11/08/2020 14:04:44 -75.50, 26.16 66.72 2.31 31
9 11/08/2020 14:54:18 76.61,-162.69 112.08 11/08/2020 14:55:04 76.60,-162.74 112.05 1.55 46
10 11/11/2020 06:21:32 -76.08, 143.82 66.63 11/11/2020 06:21:25 -76.08, 143.83 66.62 0.25 7
11 11/11/2020 07:10:38 77.02, -45.34 112.37 11/11/2020 07:11:48 77.02, -45.30 112.30 0.98 70
12 11/13/2020 21:48:54 75.04, 89.09 115.16 11/13/2020 21:47:55 75.03, 89.01 115.24 2.60 59
